Simultaneous Nadir Overpasses (SNOs) Predictions

Prediction of SNOs between LANDSAT-8 and METOP-A Satellite Orbit:

Table of predicted SNOs for the next 14.0 days since TLE Epoch: 9/28/2019
Index Date (LANDSAT-8) Time (LANDSAT-8) Lat,Lon (LANDSAT-8) SZA (LANDSAT-8 ) Date (METOP-A) Time (METOP-A) Lat,Lon (METOP-A) SZA (METOP-A ) Distance(km) Time Diff (sec)
1 09/28/2019 21:25:48 81.48, -94.81 86.55 09/28/2019 21:25:26 81.48, -94.82 86.54 0.51 22
2 09/28/2019 22:15:15 -81.48, 72.76 93.45 09/28/2019 22:16:06 -81.47, 72.86 93.42 1.63 51
3 10/01/2019 17:00:04 81.48, -28.39 87.66 10/01/2019 16:59:50 81.48, -28.34 87.66 0.96 14
4 10/01/2019 17:49:31 -81.48, 139.21 92.34 10/01/2019 17:50:30 -81.47, 139.36 92.29 2.56 59
5 10/04/2019 12:34:19 81.48, 38.02 88.76 10/04/2019 12:34:13 81.47, 38.13 88.77 1.95 6
6 10/04/2019 13:23:46 -81.48,-154.37 91.23 10/04/2019 13:24:54 -81.47,-154.56 91.22 3.13 68
7 10/07/2019 07:19:09 -81.47, -63.28 90.17 10/07/2019 07:17:58 -81.48, -63.40 90.22 2.05 71
8 10/07/2019 08:08:35 81.48, 104.40 89.85 10/07/2019 08:08:37 81.47, 104.58 89.88 3.04 2
9 10/10/2019 02:53:25 -81.47, 3.10 89.09 10/10/2019 02:52:22 -81.48, 3.04 89.12 1.12 63




NCC Satellite Simultaneous Nadir Overpasses (SNOs) Prediction Service
